Weather History for WFALA - July, 2013

Change the Weather History Date:

Thursday, July 18, 2013

  Actual Average Record
Temperature  
Mean Temperature 54 °F -  
Max Temperature 62 °F - - ()
Min Temperature 46 °F - - ()
Degree Days  
Heating Degree Days 11    
Growing Degree Days 4 (Base 50)    
Moisture  
Dew Point 41 °F    
Average Humidity 63    
Maximum Humidity 87    
Minimum Humidity 37    
Precipitation  
Precipitation 0.00 in - - ()
Sea Level Pressure  
Sea Level Pressure 30.45 in    
Wind  
Wind Speed 6 mph ()    
Max Wind Speed 17 mph    
Max Gust Speed 26 mph    
Visibility 5.7 miles    
Events      
T = Trace of Precipitation, MM = Missing Value Source: Averaged Metar Reports

Daily Weather History Graph

Daily Weather History Graph

Search for Another Location

Airport or City:

Trip Planner

Search our weather history database for the weather conditions in past years. The results will help you decide how hot, cold, wet, or windy it might be!

Date:

Astronomy

Jul. 18, 2013 Rise Set
Actual Time 6:53 AM SAST 5:35 PM SAST
Civil Twilight 6:28 AM SAST 6:00 PM SAST
Nautical Twilight 6:00 AM SAST 6:28 PM SAST
Astronomical Twilight 5:32 AM SAST 6:56 PM SAST
Moon 1:23 PM SAST (7/18) 2:07 AM SAST (7/18)
Length of Visible Light 11h 31m
Length of Day
10h 42m
Waxing Gibbous, 75% of the Moon is Illuminated
Jul 18
Waxing Gibbous
Jul 22
Full
Jul 29
Last Quarter
Aug 6
New
Aug 14
First Quarter

Hourly Weather History & Observations

Time (SAST) Temp. Windchill Dew Point Humidity Pressure Visibility Wind Dir Wind Speed Gust Speed Precip Events Conditions
4:00 AM 50.0 °F - 44.6 °F 82% 30.45 in - Calm Calm - N/A   Clear
5:00 AM 48.2 °F - 44.6 °F 87% 30.48 in - Calm Calm - N/A   Clear
6:00 AM 48.2 °F - 42.8 °F 82% 30.48 in - NE 5.8 mph - N/A   Clear
7:00 AM 46.4 °F 43.5 °F 42.8 °F 87% 30.51 in 5.0 mi East 5.8 mph - N/A   Partly Cloudy
7:09 AM 46.4 °F 43.5 °F 41.0 °F 81% 30.51 in 5.0 mi ESE 5.8 mph - N/A   Mostly Cloudy
8:00 AM 46.4 °F 43.5 °F 42.8 °F 87% 30.51 in 5.0 mi East 5.8 mph - N/A   Mostly Cloudy
8:40 AM 50.0 °F - 42.8 °F 76% 30.54 in 5.0 mi East 6.9 mph - N/A   Partly Cloudy
9:00 AM 51.8 °F - 42.8 °F 71% 30.54 in 5.6 mi East 6.9 mph - N/A   Partly Cloudy
9:44 AM 55.4 °F - 44.6 °F 67% 30.54 in 5.6 mi NE 6.9 mph - N/A   Partly Cloudy
10:00 AM 55.4 °F - 44.6 °F 67% 30.54 in 6.2 mi NE 8.1 mph - N/A   Partly Cloudy
11:00 AM 57.2 °F - 41.0 °F 55% 30.51 in 6.2 mi North 12.7 mph - N/A   Scattered Clouds
1:00 PM 60.8 °F - 37.4 °F 42% 30.42 in 6.2 mi North 17.3 mph - N/A   Partly Cloudy
2:00 PM 62.6 °F - 37.4 °F 39% 30.39 in 6.2 mi North 13.8 mph 26.5 mph N/A   Partly Cloudy
3:00 PM 62.6 °F - 35.6 °F 37% 30.36 in 6.2 mi North 16.1 mph - N/A   Partly Cloudy
4:00 PM 60.8 °F - 35.6 °F 39% 30.36 in 6.2 mi North 16.1 mph - N/A   Partly Cloudy
5:00 PM 60.8 °F - 37.4 °F 42% 30.36 in 6.2 mi NNE 12.7 mph - N/A   Partly Cloudy
6:00 PM 57.2 °F - 39.2 °F 51% 30.36 in 6.2 mi NE 6.9 mph - N/A   Partly Cloudy
7:00 PM 57.2 °F - 41.0 °F 55% 30.39 in - NNE 9.2 mph - N/A   Clear
8:00 PM 55.4 °F - 41.0 °F 58% 30.39 in 5.6 mi NNE 8.1 mph - N/A   Unknown
9:00 PM 53.6 °F - 41.0 °F 62% 30.42 in 5.0 mi North 10.4 mph - N/A   Unknown
10:00 PM 53.6 °F - 39.2 °F 58% 30.42 in 5.6 mi NNE 9.2 mph - N/A   Unknown